This is the latest recevied weather packets stored in our database for station/object KB1ZFK. If no packets are shown the sender has not sent any weather packets the latest 10 day(s).
| Time | Temp. | Humidity | Pressure | Rain* | Wind** | Luminosity | Snow |
|---|---|---|---|---|---|---|---|
| 1777721516 | 6.11° C | 96% | 1012.1 hPa | 0 mm | - | 21 W/m² | - |
| 1777721214 | 6.11° C | 96% | 1012 hPa | 0 mm | - | 22 W/m² | - |
| 1777720911 | 6.11° C | 96% | 1011.7 hPa | 0 mm | - | 25 W/m² | - |
| 1777720609 | 6.11° C | 96% | 1011.5 hPa | 0 mm | - | 25 W/m² | - |
| 1777720306 | 6.11° C | 96% | 1011.4 hPa | 0 mm | - | 22 W/m² | - |
| 1777720004 | 6.11° C | 96% | 1011.3 hPa | 0 mm | - | 31 W/m² | - |
| 1777719701 | 5.56° C | 96% | 1011.3 hPa | 0 mm | - | 54 W/m² | - |
| 1777719398 | 5.56° C | 96% | 1011.2 hPa | 0 mm | - | 54 W/m² | - |
| 1777719095 | 5.56° C | 96% | 1011.1 hPa | 0 mm | - | 51 W/m² | - |
| 1777718792 | 5.56° C | 96% | 1011.2 hPa | 0 mm | - | 42 W/m² | - |
| 1777718490 | 5.56° C | 96% | 1011.5 hPa | 0 mm | - | 32 W/m² | - |
| 1777718187 | 5.56° C | 96% | 1011.6 hPa | 1.27 mm | - | 18 W/m² | - |
| 1777717885 | 5.56° C | 96% | 1011.7 hPa | 3.05 mm | - | 15 W/m² | - |
| 1777717581 | 5.56° C | 96% | 1011.5 hPa | 3.05 mm | - | 6 W/m² | - |
| 1777717278 | 5.56° C | 96% | 1011.7 hPa | 3.05 mm | - | 6 W/m² | - |
| 1777716976 | 5.56° C | 96% | 1011.7 hPa | 4.83 mm | - | 2 W/m² | - |
| 1777716674 | 5.56° C | 96% | 1011.7 hPa | 4.83 mm | - | 0 W/m² | - |
| 1777716373 | 5.56° C | 96% | 1011.7 hPa | 4.32 mm | - | 0 W/m² | - |
| 1777716071 | 5.56° C | 96% | 1011.5 hPa | 4.83 mm | - | 0 W/m² | - |
| 1777715769 | 5.56° C | 95% | 1011.5 hPa | 4.83 mm | - | 0 W/m² | - |
| 1777715466 | 5.56° C | 95% | 1011.3 hPa | 4.32 mm | - | 0 W/m² | - |
| 1777715162 | 5.56° C | 95% | 1011.2 hPa | 1.27 mm | - | 0 W/m² | - |
| 1777714861 | 5.56° C | 95% | 1011.4 hPa | 0 mm | - | 0 W/m² | - |
| 1777714559 | 5.56° C | 95% | 1011.3 hPa | 0 mm | - | 0 W/m² | - |
| 1777714256 | 6.11° C | 94% | 1011.4 hPa | 1.78 mm | - | 0 W/m² | - |
* Rain latest hour (hover to see other rain measurements)
** Current wind speed in m/s (hover to see current wind gust speed)